Weather in Krasnoye Korsakovo

Russia / Oryol Oblast     53°10′29″N   37°13′00″E
temp.,
°C
wind,
m/s
gust,
m/s
humid.,
%
clouds,
%
prec.,
mm/h
press.,
hPa
HPBL,
m
1 december, wed
wed100:00−2wsw81372100 0.0 9921090
03:00−2wsw8127556 0.0 992949
06:00−2wsw6106966 0.0 992971
09:00−3wsw61077100 0.0 993780
12:00−2wsw71071100 0.1 9941075
15:00−1wsw51077100 0.1 9941146
18:00−2w4984100 0.3 995868
21:00−3w697095 0.4 9971032
2 december, thu
thu200:00−4w597329 0.0 1000969
03:00−5wnw6107242 0.1 1002853
06:00−5w597826 0.0 1004657
09:00−5sw498983 0.0 1006440
12:00−3ssw61174100 0.0 1005559
15:00−3s81688100 0.1 1003692
18:00−1ssw81696100 1.6 1002675
21:000sw71598100 3.2 1002623
3 december, fri
fri300:00+1sw61498100 0.4 1003562
03:00+1sw61395100 0.4 1004411
06:00+1sw51395100 0.0 1004350
09:000ssw51294100 0.0 1006289
12:00+1s4109587 0.0 1006336
15:00+2s61497100 0.0 1004567
18:00+4s81794100 0.1 1002737
21:00+4s81793100 0.2 1001634
4 december, sat
sat400:00+3wsw71197100 1.9 1001663
03:00−1wnw61294100 4.1 1005712
06:00−2w5129222 0.0 1007476
09:00−3wsw5128930 0.0 1010446
12:00−2wsw611835 0.0 1011562
15:00−2wsw6108791 0.0 1012663
18:00−3w6981100 0.1 1014809
21:00−2w577396 0.1 1016831
5 december, sun
sun500:00−3wsw36845 0.0 1017220
03:00−3wsw3585100 0.0 1018273
06:00−2sw128289 0.0 1018176
09:00−3s238790 0.0 1019110
12:00−2sse3475100 0.0 1020272
15:00−2se357799 0.0 1020223
18:00−2ese3779100 0.0 1021233
21:00−2se41075100 0.0 1020346